User: anonymous
Location: Los Gatos B&B
(42.6926°N, 77.0646°W)
Time: 00:20:43
(UTC-04:00)
Language:

Cosmos 2263 Rocket - Orbit

View from above orbital plane
View from above orbital plane
View from above satellite
View from above satellite

Ground track
Ground track

The orbit data is extracted from the following two-line orbital elements,

1 22803U 93059B   14274.82311898 -.00000107  00000-0 -29663-4 0  3881
2 22803 070.9910 174.1290 0014877 091.1849 269.0979 14.16679013 88169
Epoch (UTC): 01 October 2014 19:45:17
Eccentricity: 0.0014877
inclination: 70.9910°
perigee height: 826 km
apogee height: 847 km
right ascension of ascending node: 174.1290°
argument of perigee: 91.1849°
revolutions per day: 14.16679013
mean anomaly at epoch: 269.0979°
orbit number at epoch: 8816

The dashed part of the orbit path shows where the satellite is in the earth's shadow,  

DLR